Regional Weather Roundup
Issued by NWS

Home | Current Version | Previous Version | Text Only | Print | Product List | Glossary Off
Versions: 1 2 3 4 5 6 7 8 9 10 11 12 13 14 15 16 17 18 19 20 21 22 23 24 25 26 27 28 29 30 31 32 33 34 35 36 37 38 39 40 41 42 43 44 45 46 47 48 49 50

000
ASUS43 KDMX 300808
RWRIA

WEATHER ROUNDUP FOR IOWA
NATIONAL WEATHER SERVICE DES MOINES IA
300 AM CDT SAT JUL 30 2016

NOTE: "FAIR" INDICATES FEW OR NO CLOUDS BELOW 12,000 FEET WITH NO
SIGNIFICANT WEATHER AND/OR OBSTRUCTIONS TO VISIBILITY.

* - THESE STATIONS ARE NOT NWS STATIONS...THUS NOT UNDER NWS
QUALITY CONTROL.  THEY ALSO DO NOT REPORT WEATHER SUCH
AS PRECIPITATION OR FOG.

IAZ001>003-012>014-020>022-031>034-043>046-300900-
   NORTHWEST IOWA

CITY           SKY/WX    TMP DP  RH WIND       PRES   REMARKS
CARROLL *      PTCLDY    63  61  94 NW5       30.02S
CHEROKEE *     PTCLDY    60  60 100 CALM      30.04S
DENISON *      PTCLDY    59  59 100 CALM      30.02S
LE MARS *      PTCLDY    59  57  94 CALM      30.05F
SHELDON *      CLEAR     54  54 100 CALM      30.04S
SIOUX CITY     CLEAR     61  59  93 CALM      30.04S
SPENCER        MOCLDY    55  53  93 W5        30.05R
STORM LAKE *   PTCLDY    61  59  94 CALM      30.05S
$$

IAZ055>058-069>071-079>083-090>094-300900-
   SOUTHWEST IOWA

CITY           SKY/WX    TMP DP  RH WIND       PRES   REMARKS
ATLANTIC *     CLOUDY    63  61  94 CALM      30.03S
CLARINDA *       N/A     59  59 100 MISG      30.04S
COUNCIL BLFS * MOCLDY    63  61  94 CALM      30.03S
CRESTON *      CLEAR     61  61 100 NW5       30.02F
HARLAN  *      PTCLDY    59  59 100 CALM      30.06F
LAMONI         PTCLDY    63  62  97 CALM      30.01S
RED OAK *      MOCLDY    61  61 100 CALM      30.03R
SHENANDOAH *     N/A     61  61 100 CALM      30.03S FOG
$$

IAZ047>049-059>061-072>074-084-300900-
   CENTRAL IOWA

CITY           SKY/WX    TMP DP  RH WIND       PRES   REMARKS
AMES           CLEAR     63  63 100 N5        30.00S
ANKENY *         N/A    N/A N/A N/A MISG        N/A
BOONE *        PTCLDY    63  63 100 N5        29.99F
CHARITON *       N/A    N/A N/A N/A MISG        N/A
DES MOINES     PTCLDY    68  64  87 CALM      29.99S
GRINNELL*      CLOUDY    66  64  91 CALM      30.00S
KNOXVILLE *    CLOUDY    64  64 100 NW5       29.98S
MARSHALLTOWN   CLOUDY    64  64 100 N3        29.99S
NEWTON *       CLOUDY    64  64 100 N5        29.99S
PELLA *        MOCLDY    65  64  97 CALM      30.00R
PERRY *          N/A     62  62  98 CALM      30.01S
$$

IAZ004>006-015-016-023>025-035-036-300900-
   NORTH CENTRAL IOWA

CITY           SKY/WX    TMP DP  RH WIND       PRES   REMARKS
ALGONA *       CLOUDY    64  61  88 CALM      30.03S
ESTHERVILLE    CLOUDY    55  55 100 NW3       30.04S
FORT DODGE *   PTCLDY    63  61  94 CALM      30.03R
MASON CITY     CLEAR     62  60  93 N6        30.03F
FOREST CITY *  CLOUDY    64  61  88 CALM      30.02S
IOWA FALLS *     N/A     65  63  94 CALM      30.02S
$$

IAZ007>011-017>019-026>030-037>042-050>054-066-300900-
   NORTHEAST IOWA

CITY           SKY/WX    TMP DP  RH WIND       PRES   REMARKS
CEDAR RAPIDS   CLOUDY    67  67 100 NW5       29.97S FOG
CHARLES CITY * MOCLDY    66  66 100 N5        30.02S
CLINTON *      CLOUDY    66  66 100 N5        29.96F
DECORAH *      CLOUDY    66  66 100 NE5       30.01S
DUBUQUE        CLOUDY    66  65  96 NE7       29.99S
MONTICELLO *   CLOUDY    66  64  94 CALM      29.98S
OELWEIN *      CLOUDY    66  66 100 NE5       30.01S
WATERLOO       CLOUDY    66  64  93 N5        29.99S
$$

IAZ064-065-067-068-078-300900-
   EAST CENTRAL IOWA

CITY           SKY/WX    TMP DP  RH WIND       PRES   REMARKS
DAVENPORT      CLOUDY    67  65  93 NE5       29.96S
IOWA CITY      CLOUDY    69  66  90 N5        29.98S
MT. PLEASANT * CLOUDY    70  70 100 CALM      29.96S FOG
MUSCATINE *    MOCLDY    68  64  88 N3        29.95F
QUAD CITIES    CLOUDY    71  66  84 NE8       29.94S
$$

IAZ062-063-075>077-085>089-095>099-300900-
   SOUTHEAST IOWA

CITY           SKY/WX    TMP DP  RH WIND       PRES   REMARKS
BURLINGTON     CLOUDY    68  68 100 CALM      29.94F
FAIRFIELD *    CLOUDY    66  64  94 CALM      29.96F FOG
KEOKUK *       CLOUDY    68  66  94 NW3       29.95S
CENTERVILLE *  CLOUDY    66  64  94 CALM      30.00S
OTTUMWA        CLOUDY    67  65  93 NW6       29.97F
WASHINGTON *   CLOUDY    68  66  94 NE5       29.97F
$$

ABBREVIATIONS USED IN REMARKS
   TC - TEMPERATURES IN CELSIUS
  WCI - WIND CHILL INDEX
   HX - HEAT INDEX
  VSB - VISIBILITY
$$





USA.gov is the U.S. government's official web portal to all federal, state and local government web resources and services.